www.pogodaiklimat.ru
ПОГОДА в Маркетте
Время
и дата
05:47 24.10
06:47 24.10
07:47 24.10
08:47 24.10
09:47 24.10
10:37 24.10
10:47 24.10
11:13 24.10
11:47 24.10
12:47 24.10
13:45 24.10
14:45 24.10
15:45 24.10
16:45 24.10
17:45 24.10
18:45 24.10
19:45 24.10
20:45 24.10
21:18 24.10
21:38 24.10
21:58 24.10
22:18 24.10
22:38 24.10
22:58 24.10
23:18 24.10
23:38 24.10
23:58 24.10
00:18 25.10
00:38 25.10
00:58 25.10
01:18 25.10
01:38 25.10
01:58 25.10
02:18 25.10
02:38 25.10
02:58 25.10
03:18 25.10
03:38 25.10
03:58 25.10
04:18 25.10
04:38 25.10
04:58 25.10
05:47 25.10
06:47 25.10
07:16 25.10
07:34 25.10
07:47 25.10
08:22 25.10
Ветер
(напр.,м/с)
Видим. Явления Облачность Т
(С)
Тd
(С)
f
(%)
Тe
(С)
Тes
(С)
Комфортность P
(гПа)
Po
(гПа)
Тmin
(С)
Tmax
(С)
R
(мм)
R24
(мм)
S
(см)
ЮЗ 1 16 км 10/10 1500 м -2.0 -2.0 100 -6 -6 977.6
З 1 16 км 8/8 1800 м -2.0 -3.0 93 -6 -6 977.9
ЮЗ 1 16 км 5/5 1800 м -3.0 -4.0 93 -8 -8 977.9
З 2 16 км 8/8 1800 м -2.0 -3.0 93 -8 -8 978.9
З 2 16 км 8/8 1800 м -1.0 -2.0 93 -7 -7 978.9
З 2 16 км 8/8 420 м 0.0 -3.0 80 -6 -6 979.2
З 2
{4}
16 км 8/8 420 м -1.0 -3.0 86 -7 -6 979.2
З 2 16 км 8/8 480 м -1.0 -3.0 86 -7 -6 979.2
З 2 16 км 8/8 450 м -1.0 -3.0 86 -7 -6 978.9
З 2 16 км 5/5 1800 м 0.0 -4.0 74 -5 -3 978.6
З 2 16 км 5/5 750 м 0.0 -5.0 69 -6 -4 978.2
З 2 16 км 8/8 870 м -1.0 -6.0 69 -6 -6 977.9
З 2 16 км 8/8 1170 м -1.0 -5.0 74 -6 -6 977.9
З 2 16 км 8/8 1260 м -1.0 -5.0 74 -6 -6 977.9
З 1 16 км 8/8 1380 м -2.0 -5.0 80 -7 -7 978.2
З 1 16 км 8/8 1170 м -2.0 -5.0 80 -7 -7 978.9
З 1 16 км 10/10 1170 м -3.0 -5.0 86 -8 -8 979.2
З 1 16 км ясно -3.0 -5.0 86 -8 -8 978.9
З 1 16 км 8/8 1500 м -3.4 -4.7 91 -9 -9 978.9
З 1 16 км 10/10 1290 м -2.8 -4.3 89 -8 -8 978.9
З 1 16 км 10/10 1200 м -2.9 -4.4 89 -8 -8 979.2
З 2 16 км 5/5 1080 м -3.3 -4.7 90 -10 -10 979.2
З 1 16 км ясно -3.6 -5.0 90 -9 -9 979.5
З 1 16 км 5/5 810 м -3.7 -5.0 91 -8 -8 979.5
З 1 16 км слабый снег 10/10 870 м -3.4 -4.5 92 -8 -8 979.2
З 1 16 км слабый снег 10/10 930 м -3.2 -4.3 92 -7 -7 979.2
З 1 16 км 10/10 990 м -3.0 -4.1 92 -7 -7 979.2
ЮЗ 1 16 км 10/10 1050 м -2.9 -3.9 93 -7 -7 979.2
З 1 16 км 10/10 990 м -3.0 -4.0 93 -7 -7 979.5
З 1 16 км 10/10 840 м -2.6 -3.6 93 -7 -7 979.5 -3.7 -2.3
З 1 16 км неопределенные осадки 10/10 870 м -2.5 -3.6 92 -7 -7 979.5
З 1 16 км неопределенные осадки 10/10 750 м -2.3 -3.5 91 -8 -8 979.5
З 1 16 км слабый снег 10/10 750 м -2.2 -3.5 91 -7 -7 979.5
СЗ 2 16 км неопределенные осадки 10/10 660 м -2.1 -3.3 91 -8 -8 979.5
СЗ 2 11 км слабый снег 10/10 660 м -1.8 -3.0 91 -8 -8 979.5
СЗ 1 11 км слабый снег 10/10 1140 м -1.8 -3.0 91 -7 -7 979.5
СЗ 1 11 км слабый снег 10/10 840 м -1.8 -3.0 91 -6 -6 979.5
штиль 0 16 км 10/10 900 м -1.8 -3.0 91 -3 -3 979.5
З 1 16 км 10/10 960 м -2.0 -3.0 93 -6 -6 979.5
З 1 16 км 8/8 1230 м -2.3 -3.3 93 -6 -6 979.5
З 1 16 км 8/8 1440 м -2.5 -3.5 93 -7 -7 979.5
З 1 16 км 10/10 1500 м -2.5 -3.3 94 -7 -7 979.5
СЗ 1 16 км 5/5 1500 м -2.0 -3.0 93 -6 -6 979.5
СЗ 1 8 км слабый снег 10/8 270 м
[Ac]
-2.0 -3.0 93 -7 -7 979.9
СЗ 1 2 км слабый снег 10/10 270 м -2.0 -2.0 100 -6 -6 979.9
З 1 800 м снег 10/10 270 м -2.0 -2.0 100 -6 -6 979.5
СЗ 1 2 км слабый снег 10/10 150 м -1.0 -2.0 93 -5 -5 979.9
СЗ 1 800 м снег 10/10 210 м -1.0 -2.0 93 -6 -6 979.9
Местоположение метеостанции Sawyer International Airport: широта 46.3500 долгота -87.4000 высота над уровнем моря 372 м.
В архиве по умолчанию представлена погода в Маркетте за последние 1-2 суток. Обновление информации о фактической погоде в базе происходит ежечасно! Архивные данные за месяц целиком и за предыдущие месяцы Вы можете получить, выбрав интересующий диапазон дат из раскрывающегося списка и нажав кнопку "Ввод!".
Внимание! Архив погоды МЕТАР в базе сайта по станциям, не включенным в климатический монитор, хранится не более 60 дней. Нет смысла пытаться выбрать более раннюю дату.
*Определитесь, кто Вы:
Внимание! Время в таблицах - местное (без учета летнего времени). Для получения всемирного времени необходимо вычесть поправку, которая равна -5 ч.
Смотрите также архив погоды в соседних городах и на ближайших метеорологических станциях:
Партнеры нашего сайта:      
Пояснения к столбцам:
  • Ветер - указаны скорость ветра в м/с - средняя за 10 мин, порывы в срок и между сроками (в фигурных скобках) и направление, откуда дует ветер: С - северный,
  • СВ - северо-восточный, В - восточный, ЮВ - юго-восточный, Ю - южный, ЮЗ - юго-западный, З - западный, СЗ - северо-западный.
  • Видимость - горизонтальная дальность видимости в метрах или километрах. При видимости от 1 до 10 км при отсутствии осадков обычно наблюдается дымка, при ухудшении видимости до 1 км и менее - туман. В сухую погоду видимость может ухудшаться дымом, пылью или мглою.
  • Явления - указаны атмосферные явления, наблюдавшиеся в срок или в последний час перед сроком; фигурными скобками обозначены явления, наблюдавшиеся между сроками (за 1-3 часа до срока); квадратными скобками обозначены град или гололедные отложения с указанием их диаметра в мм.
  • Облачность - указаны через наклонную черту общая и нижняя облачность в баллах и высота нижней границы облаков в метрах; квадратными скобками обозначены формы облаков: Ci - перистые, Cs - перисто-слоистые, Cc - перисто-кучевые, Ac - высококучевые, As - высокослоистые, Sc - слоисто-кучевые, Ns - слоисто-дождевые, Cu - кучевые, Cb - кучево-дождевые. Подробнее классификацию облаков см. в Атласе облаков (PDF).
  • T - Температура воздуха - температура, измеренная на высоте 2 м над землей.
  • Td - Температура точки росы - температура, при понижении до которой содержащийся в воздухе водяной пар достигнет насыщения.
  • f - Относительная влажность воздуха - влажноcть воздуха, измеренная на высоте 2 м над землей.
  • Te - Эффективная температура - температура, которую ощущает одетый по сезону человек в тени. Характеристика душности погоды. При расчете учитывается влияние влажности воздуха и скорости ветра на теплоощущения человека.
  • Tes - Эффективная температура на солнце - температура, которую ощущает человек, с поправкой на солнечный нагрев. Характеристика знойности погоды. Зависит от высоты солнца над горизонтом, облачности и скорости ветра. Ночью, в пасмурную погоду, а также при ветре 12 м/с и более поправка равна нулю.
  • P - Атмосферное давление - приведенное к уровню моря атмосферное давление.
  • Po - Атмосферное давление - измеренное на уровне метеостанции атмосферное давление.
  • Tmin - Минимальная температура - минимум температуры воздуха на высоте 2 м над землей.
  • Tmax - Максимальная температура - максимум температуры воздуха на высоте 2 м над землей.
  • R - Количество осадков - Количество выпавших осадков за период времени, мм. При наведении курсора мыши на число - период времени, за который выпало указанное количество осадков.
  • R24 - Количество осадков - Количество выпавших осадков за 24 часа, мм.
  • S - Снежный покров - Высота снежного покрова, см. При наведении курсора мыши на число - состояние снежного покрова и степень покрытия местности в баллах.